TimePST,TemperatureF,Dew PointF,Humidity,Sea Level PressureIn,VisibilityMPH,Wind Direction,Wind SpeedMPH,Gust SpeedMPH,PrecipitationIn,Events,Conditions,WindDirDegrees,DateUTC
12:54 AM,50.0,36.0,59,29.91,10.0,Calm,Calm,-,N/A,,Clear,0,2013-11-14 08:54:00
1:54 AM,48.9,34.0,56,29.90,10.0,Calm,Calm,-,N/A,,Clear,0,2013-11-14 09:54:00
2:54 AM,48.9,34.0,56,29.89,10.0,Calm,Calm,-,N/A,,Clear,0,2013-11-14 10:54:00
3:54 AM,46.9,32.0,56,29.89,10.0,Calm,Calm,-,N/A,,Clear,0,2013-11-14 11:54:00
4:54 AM,48.0,32.0,54,29.88,10.0,Calm,Calm,-,N/A,,Clear,0,2013-11-14 12:54:00
5:54 AM,48.0,32.0,54,29.90,10.0,Calm,Calm,-,N/A,,Clear,0,2013-11-14 13:54:00
6:54 AM,48.9,32.0,52,29.91,10.0,Calm,Calm,-,N/A,,Partly Cloudy,0,2013-11-14 14:54:00
7:54 AM,61.0,35.1,38,29.92,10.0,Calm,Calm,-,N/A,,Clear,0,2013-11-14 15:54:00
8:54 AM,75.0,30.9,20,29.92,10.0,SSW,3.5,-,N/A,,Partly Cloudy,200,2013-11-14 16:54:00
9:54 AM,87.1,25.0,10,29.91,10.0,Calm,Calm,-,N/A,,Partly Cloudy,0,2013-11-14 17:54:00
10:54 AM,90.0,25.0,10,29.88,10.0,SSW,5.8,-,N/A,,Partly Cloudy,200,2013-11-14 18:54:00
11:54 AM,86.0,32.0,14,29.86,10.0,WSW,10.4,-,N/A,,Partly Cloudy,240,2013-11-14 19:54:00
12:54 PM,86.0,28.9,13,29.84,10.0,SSW,9.2,-,N/A,,Partly Cloudy,210,2013-11-14 20:54:00
1:54 PM,84.0,28.9,14,29.83,10.0,SW,6.9,-,N/A,,Partly Cloudy,230,2013-11-14 21:54:00
2:54 PM,80.1,34.0,19,29.82,10.0,South,9.2,-,N/A,,Clear,190,2013-11-14 22:54:00
3:54 PM,78.1,34.0,20,29.81,10.0,SSW,6.9,-,N/A,,Clear,200,2013-11-14 23:54:00
4:54 PM,70.0,39.0,32,29.81,10.0,SW,3.5,-,N/A,,Partly Cloudy,230,2013-11-15 00:54:00
5:54 PM,62.1,44.1,52,29.82,10.0,West,4.6,-,N/A,,Partly Cloudy,280,2013-11-15 01:54:00
6:54 PM,59.0,46.9,64,29.82,10.0,Calm,Calm,-,N/A,,Partly Cloudy,0,2013-11-15 02:54:00
7:54 PM,57.0,43.0,59,29.83,10.0,NE,4.6,-,N/A,,Partly Cloudy,50,2013-11-15 03:54:00
8:54 PM,54.0,39.0,57,29.82,10.0,NE,3.5,-,N/A,,Partly Cloudy,40,2013-11-15 04:54:00
9:54 PM,50.0,39.0,66,29.82,10.0,Calm,Calm,-,N/A,,Partly Cloudy,0,2013-11-15 05:54:00
10:17 PM,51.1,39.0,63,29.81,10.0,Calm,Calm,-,N/A,,Mostly Cloudy,0,2013-11-15 06:17:00
10:54 PM,50.0,39.9,68,29.81,10.0,Calm,Calm,-,N/A,,Mostly Cloudy,0,2013-11-15 06:54:00
11:16 PM,46.9,37.9,71,29.80,5.0,WNW,3.5,-,N/A,,Mostly Cloudy,290,2013-11-15 07:16:00
11:54 PM,50.0,46.0,86,29.80,3.0,NE,3.5,-,N/A,,Mostly Cloudy,50,2013-11-15 07:54:00